This is the latest recevied weather packets stored in our database for station/object W9ESR. If no packets are shown the sender has not sent any weather packets the latest 1 day(s).
| Time | Temp. | Humidity | Pressure | Rain* | Wind** | Luminosity | Snow |
|---|---|---|---|---|---|---|---|
| 1778015093 | 13.33° C | 39% | - | 0 mm | 4.92 m/s, 310° | - | - |
| 1778014790 | 13.33° C | 38% | - | 0 mm | 1.79 m/s, 285° | - | - |
| 1778014489 | 13.33° C | 38% | - | 0 mm | 4.02 m/s, 21° | - | - |
| 1778014185 | 13.33° C | 40% | - | 0 mm | 4.02 m/s, 356° | - | - |
| 1778013883 | 13.33° C | 39% | - | 0 mm | 1.79 m/s, 323° | - | - |
| 1778013580 | 13.33° C | 40% | - | 0 mm | 2.24 m/s, 340° | - | - |
| 1778013276 | 13.33° C | 39% | - | 0 mm | 5.36 m/s, 356° | - | - |
| 1778012973 | 13.33° C | 39% | - | 0 mm | 4.92 m/s, 10° | - | - |
| 1778012669 | 13.89° C | 38% | - | 0 mm | 5.81 m/s, 358° | - | - |
| 1778012366 | 13.33° C | 39% | - | 0 mm | 4.02 m/s, 357° | - | - |
| 1778012063 | 13.33° C | 39% | - | 0 mm | 3.13 m/s, 347° | - | - |
| 1778011761 | 13.33° C | 38% | - | 0 mm | 8.94 m/s, 8° | - | - |
| 1778011458 | 13.89° C | 40% | - | 0 mm | 3.58 m/s, 317° | - | - |
| 1778011153 | 14.44° C | 40% | - | 0 mm | 4.02 m/s, 10° | - | - |
| 1778010851 | 13.89° C | 41% | - | 0 mm | 4.47 m/s, 290° | - | - |
| 1778010548 | 13.89° C | 41% | - | 0 mm | 0.89 m/s, 239° | - | - |
| 1778010246 | 13.89° C | 41% | - | 0 mm | 4.47 m/s, 320° | - | - |
| 1778009945 | 13.89° C | 41% | - | 0 mm | 4.92 m/s, 21° | - | - |
| 1778009643 | 13.33° C | 41% | - | 0 mm | 1.79 m/s, 330° | - | - |
| 1778009341 | 13.89° C | 40% | - | 0 mm | 4.02 m/s, 15° | - | - |
| 1778009039 | 13.33° C | 41% | - | 0 mm | 3.13 m/s, 286° | - | - |
| 1778008736 | 13.33° C | 40% | - | 0 mm | 7.6 m/s, 8° | - | - |
| 1778008434 | 13.33° C | 40% | - | 0 mm | 5.81 m/s, 334° | - | - |
| 1778008131 | 13.33° C | 41% | - | 0 mm | 4.02 m/s, 20° | - | - |
| 1778007827 | 13.33° C | 41% | - | 0 mm | 4.02 m/s, 358° | - | - |
* Rain latest hour (hover to see other rain measurements)
** Current wind speed in m/s (hover to see current wind gust speed)